Regional Weather Roundup
Issued by NWS

Home | Current Version | Previous Version | Graphics & Text | Print | Product List | Glossary On
Versions: 1 2 3 4 5 6 7 8 9 10 11 12 13 14 15 16 17 18 19 20 21 22 23 24 25 26 27 28 29 30 31 32 33 34 35 36 37 38 39 40 41 42 43 44 45 46 47 48 49 50
000
ASUS43 KLMK 271910
RWRKY
KENTUCKY REGIONAL WEATHER ROUNDUP
NATIONAL WEATHER SERVICE LOUISVILLE KY
300 PM EDT FRI MAY 27 2016

NOTE "FAIR" INDICATES FEW OR NO CLOUDS BELOW 12,000 FEET
WITH NO SIGNIFICANT WEATHER AND/OR OBSTRUCTIONS TO VISIBILITY.

KYZ001>023-026-027-061>063-070>075-272000-
WESTERN AND SOUTH CENTRAL KENTUCKY

CITY           SKY/WX    TMP DP  RH WIND       PRES   REMARKS
PADUCAH        CLOUDY    83  69  62 SW10G20   29.90F
HENDERSON      MOSUNNY   82  66  57 S16G22    29.93S
OWENSBORO      PTSUNNY   86  69  56 S14G21    29.96F HX  90
HOPKINSVILLE   MOSUNNY   84  66  54 S17G24    29.97F
BOWLING GREEN  PTSUNNY   84  66  54 S13       29.99F
GLASGOW        CLOUDY    84  65  53 S9        30.01F
$$

KYZ024-025-028>034-038-045-046-053-272000-
NORTH CENTRAL KENTUCKY

CITY           SKY/WX    TMP DP  RH WIND       PRES   REMARKS
LOUISVILLE/SDF CLOUDY    87  63  44 S15G22    29.98F
LOUISVILLE/LOU CLOUDY    84  64  50 S13       29.99F
FORT KNOX      PTSUNNY   84  65  53 S17       29.98F
$$

KYZ035>037-039>044-047>052-055>060-089>105-272000-
NORTHEAST KENTUCKY

CITY           SKY/WX    TMP DP  RH WIND       PRES   REMARKS
LEXINGTON      MOSUNNY   84  64  50 S14       30.04F
COVINGTON      MOSUNNY   84  65  52 SW10G17   30.02F
FRANKFORT      MOSUNNY   85  65  51 SW10      30.01F
$$

KYZ054-064>069-076>088-106>120-272000-
SOUTHEAST KENTUCKY

CITY           SKY/WX    TMP DP  RH WIND       PRES   REMARKS
JACKSON        MOSUNNY   85  65  51 CALM      30.08F
LONDON         CLOUDY    83  62  49 VRB5      30.07F
SOMERSET       PTSUNNY   82  64  54 SE5       30.06F
MIDDLESBORO    SUNNY     85  64  49 SW5       30.08F
MONTICELLO     PTCLDY    86  68  54 SW8G16    30.06F
$$





USA.gov is the U.S. government's official web portal to all federal, state and local government web resources and services.